| time (UTC) | temp C | wind direction | speed KPH | gust KPH | rain 1hr cm | rain 24hr cm | rain mn cm | humidity % | barometer mb |
| 20260507093550 | 12 | 80 | 16.1 | 24.1 | 0.00 | 0.13 | 0.00 | 84 | 1020.8 |
| 20260507093057 | 12 | 47 | 17.7 | 24.1 | 0.00 | 0.13 | 0.00 | 84 | 1020.9 |
| 20260507092550 | 12 | 34 | 17.7 | 24.1 | 0.00 | 0.13 | 0.00 | 85 | 1021.0 |
| 20260507092050 | 12 | 42 | 12.9 | 24.1 | 0.00 | 0.13 | 0.00 | 85 | 1021.0 |
| 20260507091603 | 12 | 49 | 16.1 | 24.1 | 0.00 | 0.13 | 0.00 | 85 | 1020.7 |
| 20260507091053 | 12 | 40 | 14.5 | 22.5 | 0.00 | 0.13 | 0.00 | 85 | 1020.9 |
| 20260507090549 | 12 | 66 | 16.1 | 22.5 | 0.00 | 0.13 | 0.00 | 85 | 1020.8 |
| 20260507090109 | 12 | 42 | 16.1 | 20.9 | 0.00 | 0.13 | 0.00 | 85 | 1020.7 |
| 20260507085553 | 12 | 40 | 12.9 | 19.3 | 0.00 | 0.13 | 0.00 | 86 | 1020.6 |
| 20260507085050 | 12 | 48 | 9.7 | 16.1 | 0.00 | 0.13 | 0.00 | 86 | 1020.5 |
| 20260507084632 | 12 | 44 | 9.7 | 16.1 | 0.00 | 0.13 | 0.00 | 86 | 1020.6 |
| 20260507084050 | 11 | 35 | 8.0 | 14.5 | 0.00 | 0.13 | 0.00 | 86 | 1020.5 |
| 20260507083550 | 11 | 47 | 8.0 | 14.5 | 0.00 | 0.13 | 0.00 | 86 | 1020.4 |
| 20260507083059 | 11 | 34 | 8.0 | 16.1 | 0.00 | 0.13 | 0.00 | 86 | 1020.5 |
| 20260507082552 | 11 | 40 | 8.0 | 16.1 | 0.00 | 0.13 | 0.00 | 86 | 1020.3 |
| 20260507082052 | 11 | 36 | 9.7 | 17.7 | 0.00 | 0.13 | 0.00 | 86 | 1020.1 |
| 20260507081557 | 11 | 45 | 11.3 | 17.7 | 0.00 | 0.13 | 0.00 | 86 | 1020.1 |
| 20260507081050 | 11 | 28 | 12.9 | 17.7 | 0.00 | 0.13 | 0.00 | 86 | 1020.1 |
| 20260507080549 | 11 | 17 | 12.9 | 17.7 | 0.00 | 0.13 | 0.00 | 86 | 1020.0 |
| 20260507080056 | 11 | 34 | 11.3 | 16.1 | 0.00 | 0.13 | 0.00 | 85 | 1020.0 |
| 20260507075550 | 11 | 28 | 9.7 | 14.5 | 0.00 | 0.13 | 0.00 | 85 | 1020.0 |
| 20260507075050 | 11 | 45 | 8.0 | 12.9 | 0.00 | 0.13 | 0.00 | 84 | 1020.0 |
| 20260507074552 | 12 | 19 | 8.0 | 12.9 | 0.00 | 0.13 | 0.00 | 84 | 1019.9 |
| 20260507074051 | 12 | 30 | 8.0 | 14.5 | 0.00 | 0.13 | 0.00 | 84 | 1019.8 |
| 20260507073551 | 12 | 30 | 8.0 | 14.5 | 0.00 | 0.13 | 0.00 | 83 | 1019.8 |
| 20260507073100 | 12 | 40 | 9.7 | 17.7 | 0.00 | 0.13 | 0.00 | 83 | 1019.8 |
| 20260507072552 | 12 | 40 | 9.7 | 17.7 | 0.00 | 0.13 | 0.00 | 83 | 1019.7 |
| 20260507072050 | 12 | 51 | 11.3 | 19.3 | 0.00 | 0.13 | 0.00 | 83 | 1019.5 |
| 20260507071558 | 12 | 39 | 12.9 | 19.3 | 0.00 | 0.13 | 0.00 | 83 | 1019.2 |
| 20260507071050 | 12 | 43 | 12.9 | 19.3 | 0.00 | 0.13 | 0.00 | 83 | 1019.2 |
| 20260507070550 | 12 | 22 | 12.9 | 20.9 | 0.00 | 0.13 | 0.00 | 83 | 1019.2 |
| 20260507070135 | 12 | 70 | 12.9 | 20.9 | 0.00 | 0.13 | 0.00 | 83 | 1019.2 |
| 20260507065553 | 12 | 50 | 14.5 | 19.3 | 0.00 | 0.13 | 0.00 | 82 | 1019.1 |
| 20260507065050 | 12 | 40 | 14.5 | 19.3 | 0.00 | 0.13 | 0.00 | 82 | 1019.1 |
| 20260507064553 | 12 | 45 | 14.5 | 19.3 | 0.00 | 0.13 | 0.00 | 82 | 1019.2 |
| 20260507064050 | 12 | 44 | 11.3 | 19.3 | 0.00 | 0.13 | 0.00 | 81 | 1019.3 |
| 20260507063550 | 12 | 53 | 14.5 | 19.3 | 0.00 | 0.13 | 0.00 | 81 | 1019.2 |
| 20260507063057 | 12 | 46 | 14.5 | 17.7 | 0.00 | 0.13 | 0.00 | 81 | 1019.1 |
| 20260507062550 | 12 | 56 | 12.9 | 17.7 | 0.00 | 0.13 | 0.00 | 80 | 1019.1 |
| 20260507062052 | 13 | 65 | 14.5 | 17.7 | 0.00 | 0.13 | 0.00 | 80 | 1019.1 |
| 20260507061552 | 13 | 48 | 14.5 | 17.7 | 0.00 | 0.13 | 0.00 | 80 | 1019.1 |
| 20260507061050 | 13 | 61 | 14.5 | 17.7 | 0.00 | 0.13 | 0.00 | 80 | 1019.0 |
| 20260507060546 | 13 | 88 | 12.9 | 17.7 | 0.00 | 0.13 | 0.00 | 80 | 1019.0 |
| 20260507060053 | 13 | 66 | 9.7 | 16.1 | 0.00 | 0.13 | 0.00 | 79 | 1019.0 |
| 20260507055551 | 13 | 63 | 11.3 | 16.1 | 0.00 | 0.13 | 0.00 | 79 | 1019.0 |
| 20260507055051 | 13 | 65 | 11.3 | 16.1 | 0.00 | 0.13 | 0.00 | 79 | 1018.8 |
| 20260507054556 | 13 | 64 | 12.9 | 16.1 | 0.00 | 0.13 | 0.00 | 79 | 1018.8 |
| 20260507054051 | 13 | 70 | 11.3 | 17.7 | 0.00 | 0.13 | 0.00 | 78 | 1018.8 |
| 20260507053551 | 13 | 71 | 12.9 | 17.7 | 0.00 | 0.13 | 0.00 | 78 | 1018.9 |
| 20260507053055 | 13 | 76 | 12.9 | 16.1 | 0.00 | 0.13 | 0.00 | 78 | 1018.8 |
| 20260507052551 | 13 | 86 | 9.7 | 16.1 | 0.00 | 0.13 | 0.00 | 79 | 1018.8 |
| 20260507052050 | 13 | 70 | 6.4 | 11.3 | 0.00 | 0.13 | 0.00 | 79 | 1018.9 |
| 20260507051555 | 13 | 92 | 4.8 | 9.7 | 0.00 | 0.13 | 0.00 | 78 | 1018.8 |
| 20260507051050 | 13 | 79 | 4.8 | 12.9 | 0.00 | 0.13 | 0.00 | 77 | 1018.7 |
| 20260507050551 | 13 | 74 | 8.0 | 12.9 | 0.00 | 0.13 | 0.00 | 77 | 1018.5 |
| 20260507050103 | 13 | 85 | 8.0 | 12.9 | 0.00 | 0.13 | 0.00 | 77 | 1018.4 |
| 20260507045550 | 14 | 84 | 9.7 | 12.9 | 0.00 | 0.13 | 0.13 | 76 | 1018.5 |
| 20260507045050 | 14 | 88 | 6.4 | 16.1 | 0.00 | 0.13 | 0.13 | 76 | 1018.5 |
| 20260507044550 | 14 | 106 | 8.0 | 16.1 | 0.00 | 0.13 | 0.13 | 75 | 1018.4 |
| 20260507044047 | 14 | 86 | 12.9 | 19.3 | 0.00 | 0.13 | 0.13 | 75 | 1018.4 |
| 20260507043550 | 14 | 69 | 12.9 | 19.3 | 0.00 | 0.13 | 0.13 | 74 | 1018.4 |
| 20260507043053 | 15 | 67 | 14.5 | 19.3 | 0.00 | 0.13 | 0.13 | 74 | 1018.4 |
| 20260507042550 | 15 | 72 | 14.5 | 19.3 | 0.00 | 0.13 | 0.13 | 74 | 1018.2 |
| 20260507042050 | 15 | 77 | 16.1 | 22.5 | 0.00 | 0.13 | 0.13 | 74 | 1018.2 |
| 20260507041553 | 15 | 82 | 16.1 | 24.1 | 0.00 | 0.13 | 0.13 | 73 | 1018.1 |
| 20260507041050 | 15 | 72 | 17.7 | 24.1 | 0.00 | 0.13 | 0.13 | 73 | 1017.9 |
| 20260507040552 | 15 | 80 | 19.3 | 24.1 | 0.00 | 0.13 | 0.13 | 73 | 1017.9 |
| 20260507040052 | 15 | 80 | 19.3 | 24.1 | 0.00 | 0.13 | 0.13 | 72 | 1017.8 |
| 20260507035550 | 15 | 79 | 17.7 | 22.5 | 0.00 | 0.13 | 0.13 | 72 | 1017.7 |
| 20260507035050 | 15 | 81 | 16.1 | 22.5 | 0.00 | 0.13 | 0.13 | 72 | 1017.8 |
| 20260507034553 | 15 | 79 | 16.1 | 19.3 | 0.00 | 0.13 | 0.13 | 72 | 1017.6 |
| 20260507034050 | 15 | 82 | 12.9 | 20.9 | 0.00 | 0.13 | 0.13 | 72 | 1017.5 |
| 20260507033551 | 15 | 80 | 14.5 | 22.5 | 0.00 | 0.13 | 0.13 | 71 | 1017.6 |
| 20260507033053 | 16 | 93 | 17.7 | 22.5 | 0.00 | 0.13 | 0.13 | 71 | 1017.3 |
| 20260507032551 | 16 | 82 | 16.1 | 20.9 | 0.00 | 0.13 | 0.13 | 71 | 1017.2 |
| 20260507032051 | 16 | 80 | 17.7 | 24.1 | 0.00 | 0.13 | 0.13 | 71 | 1017.3 |
| 20260507031553 | 16 | 79 | 17.7 | 24.1 | 0.00 | 0.13 | 0.13 | 70 | 1017.2 |
| 20260507031053 | 16 | 77 | 19.3 | 24.1 | 0.00 | 0.13 | 0.13 | 70 | 1017.2 |
| 20260507030550 | 16 | 77 | 17.7 | 24.1 | 0.00 | 0.13 | 0.13 | 71 | 1017.1 |
| 20260507030101 | 16 | 73 | 16.1 | 22.5 | 0.00 | 0.13 | 0.13 | 71 | 1017.1 |
| 20260507025550 | 16 | 69 | 16.1 | 20.9 | 0.00 | 0.13 | 0.13 | 71 | 1017.0 |
| 20260507025050 | 17 | 86 | 14.5 | 19.3 | 0.00 | 0.13 | 0.13 | 72 | 1017.0 |
| 20260507024612 | 17 | 84 | 11.3 | 19.3 | 0.00 | 0.13 | 0.13 | 74 | 1016.8 |
| 20260507024055 | 17 | 105 | 12.9 | 19.3 | 0.00 | 0.13 | 0.13 | 75 | 1016.7 |
| 20260507023554 | 17 | 91 | 14.5 | 19.3 | 0.00 | 0.13 | 0.13 | 75 | 1016.5 |
| 20260507023053 | 17 | 83 | 12.9 | 19.3 | 0.00 | 0.13 | 0.13 | 74 | 1016.4 |
| 20260507022551 | 17 | 111 | 12.9 | 19.3 | 0.00 | 0.13 | 0.13 | 74 | 1016.3 |
| 20260507022051 | 17 | 117 | 12.9 | 17.7 | 0.00 | 0.13 | 0.13 | 73 | 1016.2 |
| 20260507021614 | 18 | 109 | 9.7 | 14.5 | 0.00 | 0.13 | 0.13 | 73 | 1016.1 |
| 20260507021050 | 18 | 105 | 9.7 | 14.5 | 0.00 | 0.13 | 0.13 | 72 | 1016.0 |
| 20260507020551 | 18 | 110 | 11.3 | 16.1 | 0.00 | 0.13 | 0.13 | 72 | 1016.1 |
| 20260507020105 | 18 | 113 | 11.3 | 17.7 | 0.00 | 0.13 | 0.13 | 71 | 1016.1 |
| 20260507015550 | 18 | 115 | 11.3 | 19.3 | 0.00 | 0.13 | 0.13 | 71 | 1016.1 |
| 20260507015052 | 18 | 115 | 14.5 | 19.3 | 0.00 | 0.13 | 0.13 | 70 | 1016.0 |
| 20260507014609 | 18 | 130 | 11.3 | 14.5 | 0.00 | 0.13 | 0.13 | 70 | 1016.1 |
| 20260507014050 | 19 | 127 | 9.7 | 14.5 | 0.00 | 0.13 | 0.13 | 69 | 1016.2 |
| 20260507013547 | 19 | 128 | 11.3 | 16.1 | 0.00 | 0.13 | 0.13 | 69 | 1016.1 |
| 20260507013055 | 19 | 119 | 11.3 | 16.1 | 0.00 | 0.13 | 0.13 | 69 | 1015.8 |
| 20260507012554 | 19 | 88 | 11.3 | 16.1 | 0.00 | 0.13 | 0.13 | 68 | 1015.8 |
| 20260507012051 | 20 | 86 | 11.3 | 19.3 | 0.00 | 0.13 | 0.13 | 68 | 1015.6 |
| 20260507011553 | 20 | 76 | 11.3 | 19.3 | 0.00 | 0.13 | 0.13 | 67 | 1015.6 |
| 20260507011050 | 20 | 121 | 14.5 | 20.9 | 0.00 | 0.13 | 0.13 | 66 | 1015.5 |
| 20260507010555 | 20 | 138 | 16.1 | 20.9 | 0.00 | 0.13 | 0.13 | 66 | 1015.5 |
| 20260507010108 | 20 | 136 | 17.7 | 25.7 | 0.00 | 0.13 | 0.13 | 65 | 1015.5 |
| 20260507005552 | 20 | 136 | 19.3 | 25.7 | 0.00 | 0.13 | 0.13 | 64 | 1015.4 |
| 20260507005051 | 21 | 142 | 19.3 | 24.1 | 0.00 | 0.13 | 0.13 | 62 | 1015.3 |
| 20260507004556 | 21 | 134 | 14.5 | 20.9 | 0.00 | 0.13 | 0.13 | 62 | 1015.1 |
| 20260507004050 | 21 | 128 | 16.1 | 20.9 | 0.00 | 0.13 | 0.13 | 60 | 1015.2 |
| 20260507003551 | 21 | 132 | 16.1 | 20.9 | 0.00 | 0.13 | 0.13 | 60 | 1015.2 |
| 20260507003057 | 21 | 138 | 14.5 | 19.3 | 0.00 | 0.13 | 0.13 | 59 | 1015.1 |
| 20260507002550 | 21 | 137 | 14.5 | 19.3 | 0.00 | 0.13 | 0.13 | 59 | 1015.2 |
| 20260507002050 | 21 | 129 | 12.9 | 19.3 | 0.00 | 0.13 | 0.13 | 58 | 1015.2 |
| 20260507001602 | 21 | 125 | 12.9 | 19.3 | 0.00 | 0.13 | 0.13 | 57 | 1015.1 |
| 20260507001050 | 21 | 102 | 12.9 | 17.7 | 0.00 | 0.13 | 0.13 | 56 | 1015.1 |
| 20260507000551 | 21 | 74 | 11.3 | 16.1 | 0.00 | 0.13 | 0.13 | 56 | 1015.0 |
| 20260507000055 | 21 | 88 | 9.7 | 16.1 | 0.00 | 0.13 | 0.13 | 56 | 1015.1 |
| 20260506235551 | 21 | 59 | 9.7 | 16.1 | 0.00 | 0.13 | 0.13 | 56 | 1015.1 |
| 20260506235052 | 21 | 115 | 8.0 | 14.5 | 0.00 | 0.13 | 0.13 | 56 | 1015.0 |
| 20260506234555 | 21 | 108 | 6.4 | 16.1 | 0.00 | 0.13 | 0.13 | 56 | 1015.0 |
| 20260506234050 | 21 | 98 | 9.7 | 17.7 | 0.00 | 0.13 | 0.13 | 56 | 1015.1 |
| 20260506233552 | 21 | 92 | 12.9 | 19.3 | 0.00 | 0.13 | 0.13 | 56 | 1015.0 |
| 20260506233057 | 21 | 55 | 14.5 | 19.3 | 0.00 | 0.13 | 0.13 | 56 | 1015.0 |
| 20260506232550 | 21 | 107 | 11.3 | 17.7 | 0.00 | 0.13 | 0.13 | 56 | 1015.0 |
| 20260506232050 | 21 | 73 | 9.7 | 17.7 | 0.00 | 0.13 | 0.13 | 56 | 1015.0 |
| 20260506231557 | 22 | 57 | 6.4 | 17.7 | 0.00 | 0.13 | 0.13 | 56 | 1014.8 |
| 20260506231055 | 21 | 55 | 9.7 | 19.3 | 0.00 | 0.13 | 0.13 | 58 | 1014.8 |
| 20260506230554 | 21 | 88 | 8.0 | 19.3 | 0.00 | 0.13 | 0.13 | 58 | 1014.8 |
| 20260506230104 | 21 | 76 | 9.7 | 16.1 | 0.00 | 0.13 | 0.13 | 59 | 1014.7 |
| 20260506225552 | 21 | 105 | 6.4 | 16.1 | 0.00 | 0.13 | 0.13 | 60 | 1014.7 |
| 20260506225052 | 21 | 65 | 8.0 | 20.9 | 0.00 | 0.13 | 0.13 | 60 | 1014.7 |
| 20260506224600 | 21 | 60 | 16.1 | 20.9 | 0.00 | 0.13 | 0.13 | 60 | 1014.6 |
| 20260506224050 | 21 | 111 | 8.0 | 19.3 | 0.00 | 0.13 | 0.13 | 60 | 1014.7 |
| 20260506223551 | 21 | 82 | 8.0 | 19.3 | 0.00 | 0.13 | 0.13 | 60 | 1014.6 |
| 20260506223053 | 21 | 86 | 9.7 | 19.3 | 0.00 | 0.13 | 0.13 | 60 | 1014.6 |
| 20260506222550 | 21 | 33 | 6.4 | 19.3 | 0.00 | 0.13 | 0.13 | 59 | 1014.6 |
| 20260506222050 | 20 | 44 | 6.4 | 17.7 | 0.00 | 0.13 | 0.13 | 60 | 1014.7 |
| 20260506221553 | 20 | 38 | 11.3 | 16.1 | 0.00 | 0.13 | 0.13 | 61 | 1014.7 |
| 20260506221050 | 20 | 128 | 6.4 | 14.5 | 0.00 | 0.13 | 0.13 | 60 | 1014.7 |
| 20260506220550 | 20 | 113 | 9.7 | 17.7 | 0.00 | 0.13 | 0.13 | 61 | 1014.7 |
| 20260506220052 | 20 | 138 | 4.8 | 17.7 | 0.00 | 0.13 | 0.13 | 61 | 1014.6 |
| 20260506215554 | 20 | 102 | 9.7 | 17.7 | 0.00 | 0.13 | 0.13 | 61 | 1014.7 |
| 20260506215051 | 20 | 115 | 6.4 | 17.7 | 0.00 | 0.13 | 0.13 | 60 | 1014.7 |
| 20260506214552 | 20 | 112 | 8.0 | 17.7 | 0.00 | 0.13 | 0.13 | 61 | 1014.8 |
| 20260506214051 | 20 | 0 | 6.4 | 22.5 | 0.00 | 0.13 | 0.13 | 61 | 1014.8 |
| 20260506213550 | 20 | 136 | 6.4 | 22.5 | 0.00 | 0.13 | 0.13 | 62 | 1014.8 |
| 20260506213055 | 20 | 74 | 17.7 | 22.5 | 0.00 | 0.13 | 0.13 | 62 | 1014.8 |
| 20260506212553 | 20 | 116 | 4.8 | 17.7 | 0.00 | 0.13 | 0.13 | 62 | 1014.8 |
| 20260506212051 | 20 | 176 | 3.2 | 19.3 | 0.00 | 0.13 | 0.13 | 62 | 1014.9 |
| 20260506211550 | 19 | 115 | 8.0 | 22.5 | 0.00 | 0.13 | 0.13 | 63 | 1014.8 |
| 20260506211050 | 19 | 84 | 6.4 | 22.5 | 0.00 | 0.13 | 0.13 | 64 | 1014.9 |
| 20260506210551 | 19 | 40 | 14.5 | 22.5 | 0.00 | 0.13 | 0.13 | 64 | 1015.0 |
| 20260506210055 | 18 | 78 | 3.2 | 16.1 | 0.00 | 0.13 | 0.13 | 65 | 1015.1 |
| 20260506205550 | 18 | 118 | 4.8 | 20.9 | 0.00 | 0.13 | 0.13 | 65 | 1015.2 |
| 20260506205052 | 18 | 65 | 9.7 | 20.9 | 0.00 | 0.13 | 0.13 | 66 | 1015.3 |
| 20260506204551 | 18 | 82 | 11.3 | 20.9 | 0.00 | 0.13 | 0.13 | 68 | 1015.4 |
| 20260506204050 | 17 | 98 | 8.0 | 19.3 | 0.00 | 0.13 | 0.13 | 67 | 1015.7 |
| 20260506203550 | 17 | 82 | 6.4 | 17.7 | 0.00 | 0.13 | 0.13 | 69 | 1015.7 |
| 20260506203054 | 17 | 76 | 11.3 | 17.7 | 0.00 | 0.13 | 0.13 | 68 | 1015.8 |
| 20260506202552 | 17 | 36 | 6.4 | 17.7 | 0.00 | 0.13 | 0.13 | 70 | 1015.8 |
| 20260506202051 | 17 | 79 | 9.7 | 17.7 | 0.00 | 0.13 | 0.13 | 70 | 1015.8 |
| 20260506201615 | 17 | 62 | 8.0 | 17.7 | 0.00 | 0.13 | 0.13 | 69 | 1015.8 |
| 20260506201050 | 17 | 90 | 6.4 | 17.7 | 0.00 | 0.13 | 0.13 | 70 | 1016.0 |
| 20260506200550 | 16 | 89 | 4.8 | 16.1 | 0.00 | 0.13 | 0.13 | 71 | 1015.9 |
| 20260506200052 | 16 | 93 | 9.7 | 17.7 | 0.00 | 0.13 | 0.13 | 71 | 1016.1 |
| 20260506195550 | 16 | 38 | 6.4 | 17.7 | 0.00 | 0.13 | 0.13 | 72 | 1016.1 |
| 20260506195052 | 16 | 51 | 4.8 | 16.1 | 0.00 | 0.13 | 0.13 | 72 | 1016.2 |
| 20260506194554 | 16 | 65 | 11.3 | 16.1 | 0.00 | 0.13 | 0.13 | 71 | 1016.3 |
| 20260506194050 | 16 | 159 | 3.2 | 14.5 | 0.00 | 0.13 | 0.13 | 72 | 1016.4 |
| 20260506193550 | 16 | 59 | 6.4 | 17.7 | 0.00 | 0.13 | 0.13 | 73 | 1016.3 |
| 20260506193055 | 16 | 55 | 11.3 | 17.7 | 0.00 | 0.13 | 0.13 | 73 | 1016.4 |
| 20260506192551 | 15 | 63 | 11.3 | 17.7 | 0.00 | 0.13 | 0.13 | 73 | 1016.6 |
| 20260506192051 | 15 | 68 | 8.0 | 19.3 | 0.00 | 0.13 | 0.13 | 74 | 1016.5 |
| 20260506191558 | 15 | 57 | 12.9 | 19.3 | 0.00 | 0.13 | 0.13 | 73 | 1016.6 |
| 20260506191051 | 15 | 74 | 12.9 | 20.9 | 0.00 | 0.13 | 0.13 | 73 | 1016.6 |
| 20260506190553 | 15 | 360 | 11.3 | 20.9 | 0.00 | 0.13 | 0.13 | 74 | 1016.6 |
| 20260506190103 | 15 | 48 | 14.5 | 25.7 | 0.00 | 0.13 | 0.13 | 74 | 1016.6 |
| 20260506185550 | 15 | 15 | 14.5 | 25.7 | 0.00 | 0.13 | 0.13 | 75 | 1016.8 |
| 20260506185050 | 15 | 54 | 12.9 | 22.5 | 0.00 | 0.13 | 0.13 | 75 | 1016.8 |
| 20260506184603 | 15 | 37 | 12.9 | 22.5 | 0.00 | 0.13 | 0.13 | 75 | 1016.9 |
| 20260506184050 | 15 | 49 | 14.5 | 22.5 | 0.00 | 0.13 | 0.13 | 76 | 1017.0 |
| 20260506183550 | 15 | 61 | 9.7 | 19.3 | 0.00 | 0.13 | 0.13 | 74 | 1017.1 |
| 20260506183054 | 15 | 55 | 9.7 | 24.1 | 0.00 | 0.13 | 0.13 | 75 | 1017.1 |
| 20260506182554 | 15 | 17 | 12.9 | 24.1 | 0.00 | 0.13 | 0.13 | 77 | 1017.2 |
| 20260506182050 | 15 | 42 | 14.5 | 24.1 | 0.00 | 0.13 | 0.13 | 76 | 1017.2 |
| 20260506181601 | 15 | 62 | 17.7 | 22.5 | 0.00 | 0.13 | 0.13 | 76 | 1017.0 |
| 20260506181052 | 14 | 63 | 12.9 | 22.5 | 0.00 | 0.13 | 0.13 | 76 | 1017.1 |
| 20260506180551 | 14 | 38 | 9.7 | 22.5 | 0.00 | 0.13 | 0.13 | 77 | 1017.3 |
| 20260506180100 | 14 | 62 | 16.1 | 25.7 | 0.00 | 0.13 | 0.13 | 76 | 1017.4 |
| 20260506175551 | 14 | 19 | 16.1 | 25.7 | 0.00 | 0.13 | 0.13 | 76 | 1017.4 |
| 20260506175051 | 14 | 339 | 14.5 | 24.1 | 0.00 | 0.13 | 0.13 | 76 | 1017.4 |
| 20260506174559 | 14 | 36 | 14.5 | 24.1 | 0.00 | 0.13 | 0.13 | 77 | 1017.4 |
| 20260506174051 | 14 | 27 | 11.3 | 24.1 | 0.00 | 0.13 | 0.13 | 79 | 1017.4 |
| 20260506173551 | 14 | 53 | 16.1 | 22.5 | 0.00 | 0.13 | 0.13 | 78 | 1017.5 |
| 20260506173118 | 14 | 53 | 16.1 | 24.1 | 0.00 | 0.13 | 0.13 | 78 | 1017.4 |
| 20260506172550 | 13 | 43 | 12.9 | 25.7 | 0.00 | 0.13 | 0.13 | 79 | 1017.4 |
| 20260506172050 | 13 | 29 | 17.7 | 29.0 | 0.00 | 0.13 | 0.13 | 81 | 1017.3 |
| 20260506171558 | 13 | 77 | 19.3 | 29.0 | 0.00 | 0.13 | 0.13 | 80 | 1017.3 |
| 20260506171050 | 13 | 41 | 16.1 | 29.0 | 0.00 | 0.13 | 0.13 | 81 | 1017.3 |
| 20260506170550 | 13 | 53 | 17.7 | 29.0 | 0.00 | 0.13 | 0.13 | 82 | 1017.3 |
| 20260506170056 | 13 | 57 | 17.7 | 25.7 | 0.00 | 0.13 | 0.13 | 81 | 1017.4 |
| 20260506165550 | 13 | 48 | 17.7 | 25.7 | 0.00 | 0.13 | 0.13 | 81 | 1017.4 |
| 20260506165051 | 13 | 30 | 17.7 | 32.2 | 0.00 | 0.13 | 0.13 | 81 | 1017.5 |
| 20260506164553 | 13 | 24 | 19.3 | 32.2 | 0.00 | 0.13 | 0.13 | 81 | 1017.3 |
| 20260506164050 | 13 | 33 | 16.1 | 27.4 | 0.00 | 0.13 | 0.13 | 81 | 1017.4 |
| 20260506163551 | 13 | 54 | 19.3 | 30.6 | 0.00 | 0.13 | 0.13 | 82 | 1017.1 |
| 20260506163103 | 13 | 46 | 20.9 | 30.6 | 0.00 | 0.13 | 0.13 | 82 | 1017.1 |
| 20260506162551 | 13 | 42 | 20.9 | 32.2 | 0.00 | 0.13 | 0.13 | 81 | 1017.0 |
| 20260506162050 | 13 | 19 | 22.5 | 32.2 | 0.00 | 0.13 | 0.13 | 82 | 1017.0 |
| 20260506161600 | 13 | 45 | 20.9 | 27.4 | 0.00 | 0.13 | 0.13 | 82 | 1016.8 |
| 20260506161050 | 12 | 18 | 17.7 | 27.4 | 0.00 | 0.13 | 0.13 | 83 | 1016.7 |
| 20260506160550 | 12 | 40 | 17.7 | 30.6 | 0.00 | 0.13 | 0.13 | 83 | 1016.7 |
| 20260506160051 | 12 | 17 | 20.9 | 30.6 | 0.00 | 0.13 | 0.13 | 83 | 1016.8 |
| 20260506155550 | 12 | 352 | 22.5 | 29.0 | 0.00 | 0.13 | 0.13 | 83 | 1016.6 |
| 20260506155050 | 12 | 54 | 17.7 | 29.0 | 0.00 | 0.13 | 0.13 | 84 | 1016.6 |
| 20260506154605 | 12 | 32 | 19.3 | 27.4 | 0.00 | 0.13 | 0.13 | 84 | 1016.5 |
| 20260506154048 | 12 | 45 | 20.9 | 29.0 | 0.00 | 0.13 | 0.13 | 84 | 1016.6 |
| 20260506153551 | 12 | 9 | 20.9 | 29.0 | 0.00 | 0.13 | 0.13 | 84 | 1016.5 |
| 20260506153055 | 12 | 45 | 22.5 | 32.2 | 0.00 | 0.13 | 0.13 | 84 | 1016.4 |
| 20260506152550 | 12 | 40 | 22.5 | 32.2 | 0.00 | 0.13 | 0.13 | 85 | 1016.5 |
| 20260506152054 | 12 | 34 | 20.9 | 30.6 | 0.00 | 0.13 | 0.13 | 84 | 1016.4 |
| 20260506151555 | 12 | 13 | 22.5 | 30.6 | 0.00 | 0.13 | 0.13 | 85 | 1016.0 |
| 20260506151050 | 12 | 13 | 20.9 | 30.6 | 0.00 | 0.13 | 0.13 | 86 | 1015.9 |
| 20260506150550 | 11 | 25 | 20.9 | 32.2 | 0.00 | 0.13 | 0.13 | 86 | 1016.1 |
| 20260506150054 | 11 | 19 | 25.7 | 32.2 | 0.00 | 0.13 | 0.13 | 87 | 1016.3 |
| 20260506145554 | 11 | 360 | 19.3 | 32.2 | 0.00 | 0.13 | 0.13 | 87 | 1016.5 |
| 20260506145050 | 11 | 44 | 22.5 | 32.2 | 0.00 | 0.13 | 0.13 | 88 | 1016.4 |
| 20260506144554 | 11 | 42 | 22.5 | 33.8 | 0.00 | 0.13 | 0.13 | 88 | 1016.0 |
| 20260506144050 | 11 | 46 | 24.1 | 33.8 | 0.00 | 0.13 | 0.13 | 88 | 1016.0 |
| 20260506143551 | 11 | 30 | 22.5 | 29.0 | 0.00 | 0.13 | 0.13 | 89 | 1016.0 |
| 20260506143052 | 11 | 23 | 19.3 | 29.0 | 0.00 | 0.13 | 0.13 | 89 | 1015.9 |
| 20260506142551 | 11 | 55 | 19.3 | 29.0 | 0.00 | 0.13 | 0.13 | 89 | 1015.7 |
| 20260506142050 | 11 | 44 | 22.5 | 32.2 | 0.00 | 0.13 | 0.13 | 89 | 1015.6 |
| 20260506141558 | 11 | 50 | 22.5 | 32.2 | 0.00 | 0.13 | 0.13 | 90 | 1015.5 |
| 20260506141051 | 11 | 351 | 22.5 | 32.2 | 0.05 | 0.13 | 0.13 | 90 | 1015.5 |
| 20260506140552 | 11 | 47 | 20.9 | 35.4 | 0.05 | 0.13 | 0.13 | 90 | 1015.6 |
| 20260506140101 | 11 | 27 | 24.1 | 38.6 | 0.05 | 0.13 | 0.13 | 90 | 1015.8 |
| 20260506135550 | 11 | 24 | 24.1 | 40.2 | 0.08 | 0.13 | 0.13 | 91 | 1015.8 |
| 20260506135050 | 11 | 9 | 29.0 | 40.2 | 0.08 | 0.13 | 0.13 | 91 | 1015.6 |
| 20260506134557 | 11 | 5 | 29.0 | 38.6 | 0.08 | 0.13 | 0.13 | 91 | 1014.7 |
| 20260506134050 | 11 | 15 | 29.0 | 38.6 | 0.08 | 0.13 | 0.13 | 90 | 1014.5 |
| 20260506133550 | 11 | 38 | 24.1 | 33.8 | 0.08 | 0.13 | 0.13 | 90 | 1014.6 |
| 20260506133100 | 11 | 19 | 22.5 | 30.6 | 0.08 | 0.13 | 0.13 | 90 | 1014.9 |
| 20260506132550 | 11 | 59 | 20.9 | 30.6 | 0.08 | 0.13 | 0.13 | 90 | 1015.1 |
| 20260506132053 | 11 | 69 | 22.5 | 30.6 | 0.08 | 0.13 | 0.13 | 89 | 1014.9 |
| 20260506131557 | 11 | 76 | 20.9 | 30.6 | 0.05 | 0.10 | 0.10 | 89 | 1015.1 |
| 20260506131052 | 11 | 56 | 19.3 | 27.4 | 0.05 | 0.08 | 0.08 | 89 | 1015.4 |
| 20260506130551 | 11 | 66 | 17.7 | 22.5 | 0.08 | 0.08 | 0.08 | 89 | 1016.0 |
| 20260506130055 | 11 | 44 | 16.1 | 24.1 | 0.08 | 0.08 | 0.08 | 89 | 1016.0 |
| 20260506125550 | 11 | 21 | 14.5 | 27.4 | 0.05 | 0.05 | 0.05 | 89 | 1015.7 |
| 20260506125050 | 11 | 5 | 19.3 | 27.4 | 0.05 | 0.05 | 0.05 | 89 | 1015.5 |
| 20260506124600 | 11 | 42 | 16.1 | 25.7 | 0.05 | 0.05 | 0.05 | 88 | 1015.7 |
| 20260506124050 | 11 | 59 | 16.1 | 30.6 | 0.05 | 0.05 | 0.05 | 88 | 1015.7 |
| 20260506123550 | 11 | 44 | 20.9 | 30.6 | 0.05 | 0.05 | 0.05 | 88 | 1015.0 |
| 20260506123057 | 11 | 65 | 19.3 | 27.4 | 0.05 | 0.05 | 0.05 | 88 | 1014.4 |
| 20260506122551 | 11 | 52 | 19.3 | 29.0 | 0.05 | 0.05 | 0.05 | 87 | 1014.3 |
| 20260506122050 | 11 | 30 | 19.3 | 29.0 | 0.05 | 0.05 | 0.05 | 87 | 1014.6 |
| 20260506121607 | 11 | 44 | 16.1 | 24.1 | 0.05 | 0.05 | 0.05 | 87 | 1014.2 |
| 20260506121052 | 11 | 24 | 17.7 | 25.7 | 0.03 | 0.03 | 0.03 | 86 | 1014.7 |
| 20260506120552 | 11 | 32 | 17.7 | 25.7 | 0.00 | 0.00 | 0.00 | 85 | 1014.9 |
| 20260506120111 | 11 | 45 | 17.7 | 29.0 | 0.00 | 0.00 | 0.00 | 85 | 1014.7 |
| 20260506115552 | 11 | 40 | 22.5 | 29.0 | 0.00 | 0.00 | 0.00 | 85 | 1014.1 |
| 20260506115051 | 11 | 48 | 22.5 | 29.0 | 0.00 | 0.00 | 0.00 | 85 | 1013.8 |
| 20260506114614 | 11 | 28 | 19.3 | 27.4 | 0.00 | 0.00 | 0.00 | 85 | 1014.1 |
| 20260506114050 | 12 | 54 | 19.3 | 27.4 | 0.00 | 0.00 | 0.00 | 84 | 1014.1 |
| 20260506113551 | 12 | 44 | 19.3 | 27.4 | 0.00 | 0.00 | 0.00 | 84 | 1014.0 |
| 20260506113054 | 12 | 51 | 20.9 | 30.6 | 0.00 | 0.00 | 0.00 | 84 | 1013.9 |
| 20260506112550 | 12 | 31 | 20.9 | 30.6 | 0.00 | 0.00 | 0.00 | 83 | 1013.8 |
| 20260506112051 | 12 | 34 | 16.1 | 30.6 | 0.00 | 0.00 | 0.00 | 83 | 1013.7 |
| 20260506111553 | 12 | 360 | 19.3 | 29.0 | 0.00 | 0.00 | 0.00 | 84 | 1013.3 |
| 20260506111051 | 12 | 360 | 20.9 | 29.0 | 0.00 | 0.00 | 0.00 | 84 | 1013.3 |
| 20260506110550 | 12 | 360 | 14.5 | 24.1 | 0.00 | 0.00 | 0.00 | 84 | 1013.2 |
| 20260506110058 | 12 | 360 | 14.5 | 22.5 | 0.00 | 0.00 | 0.00 | 84 | 1013.2 |
| 20260506105554 | 12 | 360 | 14.5 | 22.5 | 0.00 | 0.00 | 0.00 | 84 | 1013.2 |
| 20260506105051 | 12 | 360 | 16.1 | 25.7 | 0.00 | 0.00 | 0.00 | 84 | 1013.3 |
| 20260506104554 | 12 | 360 | 17.7 | 25.7 | 0.00 | 0.00 | 0.00 | 84 | 1013.1 |
| 20260506104050 | 12 | 360 | 16.1 | 24.1 | 0.00 | 0.00 | 0.00 | 83 | 1013.1 |
| 20260506103551 | 12 | 360 | 14.5 | 20.9 | 0.00 | 0.00 | 0.00 | 83 | 1012.9 |
| 20260506103057 | 12 | 360 | 12.9 | 20.9 | 0.00 | 0.00 | 0.00 | 83 | 1013.2 |
| 20260506102551 | 12 | 360 | 16.1 | 22.5 | 0.00 | 0.00 | 0.00 | 83 | 1013.0 |
| 20260506102052 | 12 | 360 | 14.5 | 24.1 | 0.00 | 0.00 | 0.00 | 83 | 1013.0 |
| 20260506101605 | 12 | 360 | 14.5 | 25.7 | 0.00 | 0.00 | 0.00 | 83 | 1013.1 |
| 20260506101049 | 12 | 360 | 19.3 | 25.7 | 0.00 | 0.00 | 0.00 | 83 | 1012.7 |
| 20260506100549 | 12 | 360 | 16.1 | 24.1 | 0.00 | 0.00 | 0.00 | 83 | 1012.8 |
| 20260506100050 | 12 | 360 | 16.1 | 29.0 | 0.00 | 0.00 | 0.00 | 83 | 1013.1 |
| 20260506095547 | 12 | 360 | 17.7 | 29.0 | 0.00 | 0.00 | 0.00 | 82 | 1012.8 |
| 20260506095049 | 12 | 360 | 17.7 | 27.4 | 0.00 | 0.00 | 0.00 | 82 | 1012.8 |
| 20260506094550 | 12 | 360 | 16.1 | 30.6 | 0.00 | 0.00 | 0.00 | 82 | 1012.9 |
| 20260506094049 | 12 | 360 | 17.7 | 30.6 | 0.00 | 0.00 | 0.00 | 82 | 1012.8 |